Wind_Speed
24 24 25 25 24 24 24 24 24 24 24 25 25 26 27 27 27 27 28 28 27 28 30 31 31 32 34 33 34 35 35 36 38 38 37 37 38 37
24 24 24 24 24 23 23 23 23 24 24 25 25 25 26 27 27 28 28 27 28 29 29 30 30 31 33 33 34 35 35 35 36 37 37 37 38 39
23 24 23 24 23 23 23 23 23 23 23 24 25 25 25 26 27 27 27 27 28 29 30 30 31 31 32 33 34 35 35 35 36 37 37 38 39 39
22 22 22 23 23 23 23 23 23 23 23 23 23 24 25 25 25 25 26 27 28 28 29 30 30 30 31 32 33 34 35 36 37 37 38 39 39 40
22 22 21 22 22 23 23 22 23 23 23 23 23 23 24 24 24 24 24 25 27 27 28 29 29 29 29 31 32 32 33 35 36 37 37 38 39 39
21 20 20 21 22 22 22 22 22 22 22 22 22 23 23 23 23 23 24 24 25 26 27 27 27 28 28 29 31 32 32 32 33 34 36 37 37 37
19 19 19 20 20 21 21 21 21 22 22 22 22 23 23 23 23 23 23 24 23 23 24 25 25 27 28 29 30 31 31 32 32 32 33 34 35 36
19 19 20 20 21 21 21 21 21 22 22 21 22 22 22 22 23 23 23 22 22 22 23 24 25 26 27 28 28 29 30 31 31 32 32 33 34 35
20 20 21 21 21 21 20 20 21 21 21 21 22 22 21 21 21 21 21 22 22 22 23 23 24 24 25 26 27 28 29 30 31 32 33 33 33 34
20 21 21 21 21 20 20 21 21 21 21 21 21 20 20 20 20 20 20 21 22 22 22 22 23 23 24 25 26 27 28 29 30 31 32 33 33 33
20 20 20 20 20 20 20 20 20 20 21 20 20 20 19 19 18 19 19 19 20 20 21 21 23 24 24 25 26 26 27 28 29 30 31 31 32 33
21 20 20 20 21 20 20 20 21 20 20 20 19 19 19 19 19 19 20 20 19 19 20 20 21 23 23 24 25 25 26 27 28 30 31 31 32 33
20 20 20 21 21 21 21 21 21 20 20 19 18 19 19 19 19 20 19 19 19 19 20 20 21 21 22 24 25 25 26 27 28 29 30 31 31 32
21 21 21 20 20 20 20 20 20 20 19 19 19 19 18 18 18 19 20 19 20 20 20 20 21 21 22 22 23 24 25 26 27 28 29 29 30 30
21 21 20 20 20 20 20 20 20 20 20 19 19 19 18 19 19 19 19 20 20 20 20 20 21 21 22 22 23 23 24 24 25 26 27 28 29 30
21 21 21 21 21 21 21 21 21 20 20 20 19 19 19 19 19 19 19 19 19 18 19 20 21 22 22 22 22 22 22 23 23 24 25 26 27 29
22 21 21 22 22 22 22 21 21 21 20 20 19 19 18 18 18 19 20 20 19 18 19 20 20 21 21 22 22 23 23 23 23 24 25 25 26 26
24 23 22 23 23 23 22 22 22 21 20 19 18 18 18 18 18 19 19 19 19 19 20 20 21 21 21 22 23 23 23 23 23 23 24 25 25 25
24 24 23 23 23 23 22 22 21 20 20 19 19 19 19 19 20 20 21 21 21 21 21 21 21 21 22 21 22 23 23 23 22 22 22 23 24 25
24 24 24 23 23 23 23 22 21 21 20 19 19 19 19 20 20 20 20 20 21 21 21 21 21 22 22 21 22 22 22 22 23 22 22 22 23 24
25 25 24 24 25 24 24 23 22 21 21 20 20 20 20 20 20 20 20 21 21 21 22 22 22 21 21 21 21 21 21 21 21 21 22 22 22 23
26 26 25 25 25 25 24 23 22 21 21 21 20 20 21 21 20 20 20 20 20 21 21 22 22 21 22 21 21 21 21 21 20 20 20 20 20 21
26 26 26 26 26 25 25 24 23 22 22 22 21 21 21 21 22 21 21 21 21 21 21 21 21 21 22 22 21 21 20 20 20 19 19 19 19 20
Wind_Direction
297 297 295 294 292 290 289 287 286 283 280 279 279 277 275 272 271 269 266 264 260 260 258 258 256 253 251 249 249 249 250 250 250 250 250 249 248 246
296 296 296 294 293 291 290 289 288 286 283 281 280 280 277 273 272 270 266 264 260 260 259 258 256 253 251 250 250 250 251 251 252 251 251 250 249 248
299 297 295 293 292 292 290 289 287 286 286 282 280 279 278 276 274 271 269 266 262 260 258 258 257 255 252 252 251 251 251 251 252 252 252 251 250 250
301 300 298 296 294 293 292 291 289 287 287 283 281 281 279 275 273 274 273 267 265 262 259 259 259 256 254 253 253 252 252 252 253 253 252 251 251 250
303 302 300 297 296 296 295 292 290 288 287 284 281 280 281 279 276 275 274 271 267 264 261 258 258 258 256 255 254 254 254 254 255 255 253 251 251 251
306 305 302 300 298 298 297 295 293 291 288 286 282 281 281 279 277 276 275 273 271 266 262 260 260 260 260 259 257 255 254 253 254 253 252 251 251 251
309 309 307 304 301 299 297 296 294 294 291 288 285 283 283 280 280 279 276 273 271 268 266 264 263 262 262 262 259 256 255 254 253 252 252 252 252 251
309 308 308 307 304 300 297 297 297 295 294 291 288 286 285 282 283 280 278 274 271 269 269 267 265 264 263 262 261 259 258 256 255 253 253 253 254 254
310 308 308 307 305 303 300 299 298 297 296 294 288 286 284 283 284 281 278 274 272 271 269 268 266 265 264 264 262 261 259 257 257 257 256 254 254 254
312 310 310 309 307 306 304 303 302 300 298 296 289 286 285 285 286 284 279 277 274 272 270 269 268 266 266 266 265 265 262 260 259 258 257 255 254 254
317 314 312 312 310 308 307 307 306 304 302 299 293 290 289 288 285 284 281 278 276 274 272 270 269 268 267 268 267 267 265 262 260 260 259 258 256 254
321 318 314 312 310 308 307 306 305 305 302 300 296 291 289 287 285 284 282 279 277 275 273 272 271 270 269 269 269 268 266 264 262 262 261 260 259 256
323 321 317 314 311 309 307 307 307 305 304 299 295 294 294 289 286 285 283 281 278 276 275 273 273 274 272 270 271 270 269 267 264 263 262 261 260 259
324 323 321 318 315 312 310 310 309 307 303 299 296 294 293 290 287 285 283 284 282 280 278 276 274 274 273 272 272 272 270 267 265 265 263 262 260 259
328 326 324 324 321 318 315 313 312 309 307 306 301 295 291 288 286 284 283 283 281 280 279 278 277 275 274 274 274 273 271 269 268 265 264 263 262 261
334 331 329 328 326 323 320 318 316 314 310 307 302 297 294 292 287 282 283 284 282 278 279 278 278 276 275 275 275 274 271 270 269 267 265 265 264 262
337 334 332 330 328 325 322 318 317 314 312 311 308 302 300 298 292 286 284 284 283 280 278 279 278 276 276 275 274 272 270 272 272 269 266 265 263 261
338 336 334 332 330 328 325 321 318 315 313 311 310 307 304 301 298 293 290 286 283 283 282 279 279 277 275 276 276 276 274 273 271 270 267 265 262 261
338 337 336 334 334 332 329 325 321 318 314 311 309 307 305 302 299 295 291 289 285 283 282 281 279 278 277 278 278 277 275 272 270 270 269 265 261 260
337 336 336 336 336 334 332 329 326 323 319 315 313 310 307 304 300 297 293 291 290 286 282 281 279 279 280 281 280 278 276 272 269 269 270 267 264 262
338 338 338 338 336 335 333 329 327 324 321 317 314 312 310 307 302 299 296 294 292 290 287 283 281 281 281 281 281 279 277 274 273 271 270 267 266 265
342 342 341 340 338 337 335 332 329 327 324 321 318 316 313 309 305 302 298 296 294 292 291 288 284 283 280 280 280 279 276 274 272 270 267 266 266 265
341 341 341 340 339 338 338 337 333 329 326 322 319 318 315 312 308 304 301 296 293 292 292 290 286 285 283 280 279 278 276 273 271 269 266 265 264 265
Height
5736 5733 5730 5728 5725 5723 5721 5719 5717 5716 5714 5712 5711 5710 5709 5708 5707 5707 5706 5706 5706 5707 5708 5708 5709 5711 5713 5715 5718 5721 5724 5726 5728 5731 5733 5736 5739 5742
5730 5727 5724 5722 5719 5717 5715 5713 5711 5709 5707 5706 5704 5703 5702 5701 5700 5699 5699 5698 5699 5699 5700 5701 5702 5703 5704 5707 5709 5712 5715 5717 5719 5721 5724 5726 5729 5732
5723 5721 5718 5716 5713 5711 5709 5706 5704 5702 5701 5699 5698 5696 5695 5694 5693 5692 5691 5691 5691 5692 5692 5693 5694 5695 5696 5698 5701 5703 5705 5707 5709 5712 5714 5716 5719 5722
5718 5715 5712 5710 5707 5705 5702 5700 5698 5696 5694 5693 5691 5690 5688 5687 5686 5685 5684 5683 5683 5684 5684 5685 5686 5687 5688 5690 5691 5693 5695 5697 5700 5702 5704 5707 5709 5711
5712 5709 5706 5704 5701 5699 5696 5694 5692 5690 5688 5686 5684 5683 5682 5680 5679 5678 5677 5676 5676 5676 5676 5677 5677 5678 5680 5681 5682 5684 5686 5688 5690 5692 5693 5696 5698 5701
5706 5703 5701 5698 5696 5693 5690 5688 5686 5684 5681 5680 5678 5676 5675 5673 5672 5671 5670 5669 5668 5668 5668 5669 5670 5670 5671 5673 5674 5675 5677 5679 5680 5682 5684 5686 5688 5691
5701 5698 5696 5693 5690 5687 5685 5682 5680 5677 5675 5673 5672 5670 5668 5666 5665 5664 5663 5662 5661 5661 5661 5661 5662 5663 5663 5664 5665 5666 5668 5670 5671 5673 5675 5677 5678 5680
5697 5694 5691 5688 5685 5682 5679 5677 5674 5672 5669 5667 5665 5663 5662 5660 5658 5657 5656 5655 5655 5655 5654 5654 5654 5655 5655 5656 5657 5658 5659 5661 5662 5664 5665 5667 5669 5671
5693 5690 5687 5683 5680 5677 5674 5671 5669 5666 5663 5661 5659 5657 5655 5654 5652 5651 5649 5648 5648 5647 5647 5647 5647 5647 5648 5648 5649 5650 5651 5652 5653 5655 5656 5658 5659 5661
5688 5685 5682 5679 5675 5672 5669 5666 5663 5660 5658 5655 5653 5651 5649 5648 5646 5644 5643 5642 5641 5641 5640 5641 5640 5640 5641 5641 5641 5642 5643 5644 5645 5646 5647 5648 5650 5652
5684 5681 5677 5674 5671 5668 5664 5661 5658 5655 5652 5649 5647 5645 5643 5642 5640 5639 5637 5636 5636 5635 5634 5634 5634 5634 5633 5634 5634 5634 5634 5635 5636 5637 5638 5639 5641 5642
5680 5676 5673 5670 5666 5662 5659 5656 5653 5650 5647 5644 5642 5640 5638 5636 5634 5633 5631 5630 5630 5629 5628 5628 5627 5627 5627 5627 5626 5626 5626 5627 5627 5628 5629 5630 5631 5632
5676 5672 5668 5664 5661 5657 5654 5650 5647 5644 5641 5639 5636 5634 5632 5630 5628 5627 5626 5625 5624 5623 5622 5622 5621 5620 5620 5620 5619 5619 5619 5619 5619 5619 5620 5621 5622 5623
5672 5668 5663 5659 5655 5651 5648 5645 5642 5639 5636 5633 5630 5628 5626 5624 5622 5621 5620 5619 5618 5617 5616 5615 5614 5613 5613 5612 5612 5611 5611 5611 5611 5611 5612 5612 5613 5614
5667 5663 5658 5654 5650 5647 5643 5639 5636 5633 5630 5627 5625 5622 5620 5618 5616 5615 5614 5612 5611 5610 5609 5608 5608 5607 5606 5606 5605 5604 5603 5603 5603 5603 5603 5604 5604 5605
5664 5659 5655 5650 5646 5642 5638 5634 5630 5627 5624 5622 5619 5617 5614 5612 5610 5609 5607 5606 5605 5604 5603 5602 5601 5600 5600 5599 5598 5597 5596 5596 5595 5595 5595 5595 5596 5596
5660 5655 5650 5646 5642 5637 5633 5629 5626 5622 5619 5616 5613 5611 5608 5606 5604 5602 5601 5600 5599 5597 5596 5595 5594 5593 5593 5592 5591 5590 5589 5588 5588 5588 5587 5587 5588 5588
5656 5651 5646 5641 5637 5633 5628 5624 5620 5616 5613 5610 5608 5605 5603 5601 5599 5597 5595 5594 5592 5591 5590 5589 5587 5587 5586 5585 5584 5582 5582 5581 5580 5580 5580 5580 5580 5580
5652 5647 5642 5638 5633 5628 5623 5619 5615 5611 5608 5605 5602 5600 5597 5595 5593 5590 5589 5587 5586 5584 5583 5582 5581 5579 5578 5578 5576 5575 5574 5573 5573 5572 5572 5572 5572 5572
5649 5643 5639 5634 5629 5624 5619 5614 5610 5606 5603 5600 5597 5594 5591 5589 5586 5584 5582 5580 5578 5577 5576 5575 5573 5572 5571 5570 5569 5568 5567 5566 5566 5565 5565 5564 5564 5565
5645 5640 5635 5630 5625 5619 5615 5610 5605 5601 5598 5594 5591 5588 5585 5582 5579 5577 5575 5573 5571 5570 5568 5567 5566 5565 5563 5562 5562 5561 5560 5559 5558 5558 5558 5557 5557 5557
5642 5636 5631 5626 5620 5615 5610 5605 5600 5596 5592 5589 5585 5582 5579 5576 5573 5570 5568 5566 5564 5562 5560 5559 5558 5557 5556 5555 5554 5554 5553 5552 5551 5551 5551 5551 5551 5551
5639 5633 5628 5622 5616 5611 5606 5601 5596 5592 5588 5584 5580 5577 5573 5570 5567 5564 5561 5559 5557 5555 5553 5552 5550 5550 5549 5548 5547 5546 5546 5545 5544 5544 5545 5544 5544 5545